Notices

What's New in latest Release from April 7th, 2021:

- Updated Glossary, including Speed of Maximum Gust, and Total Hourly Precipitation

- Updated national and regional climate services offices contacts and prices information

- Addition of station inventory lists for 1981-2010, 1971-2000, and 1961-1990 Normals.

If you haven't already, please take our survey and provide feedback about our website: https://eccc.sondage-survey.ca/f/LanguageSelection.aspx?s=442ca660-fcf1-47c0-95a9-59707d6fd709

Hourly Data Report for September 28, 2018

TORONTO CITY
ONTARIO
Current Station Operator: ECCC - MSC

43°40'00.000" N
79°24'00.000" W
112.50 m
6158355
71508
XTO

Download Data

Hourly Data (September 2018)
Hourly Data Report for September 28, 2018
TIME
LST
Temp Definition
°C
Dew Point Definition
°C
Rel Hum Definition
%
Precip. Amount Definition
mm

Wind Dir Definition
10's deg

Wind Spd Definition
km/h
Visibility Definition
km
Stn Press Definition
kPa
Hmdx Definition


Wind Chill Definition


Weather Definition


00:00 15.9 10.7 71 0.0 LegendMM LegendMM   100.17     LegendNANA
01:00 15.4 11.3 76 0.0 LegendMM LegendMM   100.15     LegendNANA
02:00 15.7 12.0 78 0.0 LegendMM LegendMM   100.19     LegendNANA
03:00 14.0 10.8 81 0.0 LegendMM LegendMM   100.17     LegendNANA
04:00 13.9 11.4 85 0.0 LegendMM LegendMM   100.18     LegendNANA
05:00 13.7 10.4 81 0.0 LegendMM LegendMM   100.19     LegendNANA
06:00 13.1 9.7 80 0.0 LegendMM LegendMM   100.21     LegendNANA
07:00 13.2 10.0 81 0.0 LegendMM LegendMM   100.26     LegendNANA
08:00 15.3 10.5 73 0.0 LegendMM LegendMM   100.27     LegendNANA
09:00 16.5 9.8 65 0.0 LegendMM LegendMM   100.24     LegendNANA
10:00 17.6 8.6 56 0.0 LegendMM LegendMM   100.26     LegendNANA
11:00 19.2 9.1 52 0.0 LegendMM LegendMM   100.23     LegendNANA
12:00 20.4 7.1 42 0.0 LegendMM LegendMM   100.22     LegendNANA
13:00 20.9 8.7 46 0.0 LegendMM LegendMM   100.20     LegendNANA
14:00 21.0 10.2 50 0.0 LegendMM LegendMM   100.14     LegendNANA
15:00 21.8 7.0 38 0.0 LegendMM LegendMM   100.13     LegendNANA
16:00 20.3 9.3 49 0.0 LegendMM LegendMM   100.18     LegendNANA
17:00 18.6 8.7 52 0.0 LegendMM LegendMM   100.27     LegendNANA
18:00 16.1 9.0 63 0.0 LegendMM LegendMM   100.34     LegendNANA
19:00 15.0 8.2 64 0.0 LegendMM LegendMM   100.45     LegendNANA
20:00 13.7 7.8 67 0.0 LegendMM LegendMM   100.57     LegendNANA
21:00 12.3 8.5 78 1.0 LegendMM LegendMM   100.63     LegendNANA
22:00 11.9 8.6 80 0.5 LegendMM LegendMM   100.65     LegendNANA
23:00 11.8 8.7 82 1.0 LegendMM LegendMM   100.70     LegendNANA

Notes on Data Quality.

Legend

  • E = Estimated
  • M = Missing
  • NA = Not Available*
  • [empty] = Indicates an unobserved value
Date modified: